Temperature
19 19 19 18 18 18 18 18 17 17 17 16 16 16 16 16 16 15 15 15 15 15 15 15 14 14 14 14 14 14 14 14 14 14 14 14 14 14 13 13 13 13 13
20 19 19 18 18 18 18 17 17 17 17 17 16 16 16 16 15 15 15 15 15 15 15 14 14 14 14 14 14 14 14 14 14 14 14 13 13 13 13 13 13 13 13
20 19 19 19 18 18 18 17 17 17 17 16 16 16 16 16 15 15 15 15 15 15 14 14 14 14 14 14 14 14 14 14 14 14 14 14 13 13 13 13 13 13 12
20 20 19 18 18 18 18 17 17 17 17 16 16 16 16 16 15 15 15 15 15 15 14 14 14 14 14 14 14 14 14 14 14 14 14 14 14 13 13 12 12 12 12
20 20 19 18 18 18 17 17 17 17 17 16 16 16 16 15 15 15 15 15 15 14 14 14 14 14 14 14 14 14 14 14 14 14 14 14 14 14 13 13 12 12 12
20 19 19 18 18 17 17 17 17 17 17 16 16 16 16 15 15 15 15 15 15 15 14 14 14 14 14 14 14 14 14 14 14 14 13 13 13 13 13 13 12 12 12
20 19 19 18 18 17 17 17 17 17 17 16 16 16 16 16 15 15 15 15 15 15 14 14 14 14 14 14 14 14 14 14 14 14 13 13 13 13 13 13 13 12 12
20 19 19 18 18 17 17 17 17 17 16 16 16 16 16 16 15 15 15 15 15 15 15 14 14 14 14 14 14 14 14 14 14 14 13 13 13 13 13 13 13 12 12
20 19 19 18 18 17 17 17 17 16 16 16 16 16 16 15 15 15 15 15 15 15 14 14 14 14 14 14 14 14 14 14 14 14 13 13 13 13 13 13 13 13 12
20 19 18 18 18 17 17 17 17 16 16 16 16 16 15 15 15 15 15 15 15 15 15 14 14 14 14 14 14 14 14 14 14 13 13 13 13 13 13 13 13 12 12
19 19 18 18 18 17 17 17 17 16 16 16 16 15 15 15 15 15 15 15 15 15 15 14 14 14 14 14 14 14 14 14 13 13 13 13 13 13 13 13 13 12 12
19 19 18 18 17 17 17 17 16 16 16 16 16 15 15 15 15 15 15 15 15 15 15 14 14 14 14 14 14 14 14 14 13 13 13 13 13 13 13 12 12 12 12
19 19 18 17 17 17 17 16 16 16 16 16 16 15 15 15 15 15 15 15 15 14 14 14 14 14 14 14 14 14 14 13 13 13 13 13 13 13 13 12 12 12 12
19 18 18 17 17 17 16 16 16 16 16 15 15 15 15 15 15 15 15 14 14 14 14 14 14 14 14 14 14 14 14 13 13 13 13 13 13 13 13 12 12 12 12
18 18 17 17 16 16 16 16 16 15 15 15 15 15 15 14 14 14 14 14 14 14 14 14 14 14 14 14 14 13 13 13 13 13 13 13 13 13 13 12 12 12 12
18 18 17 17 16 16 16 16 15 15 15 15 15 15 14 14 14 14 14 14 14 14 14 14 14 14 14 14 13 13 13 13 13 13 13 13 13 12 12 12 12 12 12
17 17 17 17 16 16 16 15 15 15 15 15 15 14 14 14 14 14 14 14 14 14 13 13 13 14 13 13 13 13 13 13 13 12 12 12 12 12 12 12 12 11 11
17 17 16 16 16 16 15 15 15 15 15 14 14 14 14 14 14 13 13 13 13 13 13 13 13 13 13 13 13 13 13 12 12 12 12 12 12 12 12 12 11 11 11
16 16 16 16 15 15 15 15 15 15 14 14 14 14 14 14 13 13 13 13 13 13 13 13 13 12 13 13 13 12 12 12 12 12 12 12 12 12 12 11 11 11 11
15 15 15 15 15 15 15 14 14 14 14 14 14 13 13 13 13 13 13 13 12 12 12 12 12 12 12 12 12 12 12 12 12 12 11 11 11 11 11 11 11 11 11
14 14 14 14 14 14 14 14 14 14 13 13 13 13 13 13 13 13 13 12 12 12 12 12 12 12 12 12 12 12 11 11 11 11 11 11 11 11 11 11 11 11 10
14 14 13 13 13 13 14 13 13 13 13 13 13 13 12 12 12 12 12 12 12 11 11 11 11 11 11 11 11 11 11 11 11 11 11 11 11 11 11 11 11 10 10
13 13 13 13 13 13 13 13 12 12 12 12 12 12 12 12 12 12 12 11 11 11 11 11 11 11 11 11 11 11 11 11 11 11 11 11 11 11 10 10 10 10 10
12 12 12 12 12 12 12 12 12 12 12 12 12 12 12 11 11 11 11 11 11 11 11 11 11 10 10 11 11 11 10 10 10 10 10 10 10 10 10 10 10 10 10
12 12 11 11 11 12 11 11 11 11 11 11 11 11 11 11 11 11 10 11 11 11 11 11 10 10 10 10 10 10 10 10 10 10 10 10 10 10 10 9 9 9 9
11 11 11 11 11 11 11 11 11 11 10 10 10 10 10 10 10 10 10 10 10 10 10 10 10 10 10 10 10 10 10 10 9 9 9 9 9 9 9 9 9 9 9
Wind_Speed
8 7 6 6 5 4 5 5 5 4 4 3 3 2 2 2 2 2 3 4 5 6 5 3 3 4 3 3 3 3 3 2 2 3 3 2 3 4 3 4 4 6 7
9 8 7 6 6 5 4 5 5 4 4 3 3 2 2 2 2 2 3 4 4 4 4 3 2 3 3 3 3 2 2 1 1 1 1 1 2 3 3 3 3 4 6
10 9 8 7 6 5 5 4 4 5 5 4 3 3 2 1 2 2 1 2 3 3 3 3 3 3 2 2 1 1 2 0 1 1 1 1 1 0 2 3 3 4 4
8 8 8 7 6 5 5 4 4 5 5 5 4 4 3 2 2 2 2 1 2 2 2 3 2 3 2 2 1 1 1 1 1 1 1 1 2 2 1 1 2 3 3
8 8 8 7 6 5 4 4 4 4 5 5 4 3 2 2 2 2 3 2 2 2 2 3 2 2 2 2 1 1 1 0 0 0 1 2 2 1 2 1 1 2 2
7 7 8 7 5 5 4 3 3 4 4 4 5 5 4 3 2 2 3 2 2 2 2 3 2 2 2 2 2 1 1 0 0 0 1 1 1 1 1 1 1 1 1
7 7 7 8 6 6 5 4 4 4 4 3 4 4 4 4 3 3 3 3 2 2 3 2 2 2 2 1 2 2 2 1 1 1 1 0 0 0 1 2 1 1 0
6 6 7 7 7 7 6 5 5 4 4 4 3 3 3 2 2 2 2 2 2 3 3 3 2 2 2 2 2 1 1 1 2 1 1 1 0 1 1 2 2 1 1
6 6 6 7 7 7 6 5 5 4 4 3 3 2 3 3 2 2 1 2 2 2 3 3 3 2 2 2 2 1 1 1 1 1 2 1 1 1 1 1 2 2 1
6 6 5 5 6 6 6 6 5 5 5 4 3 3 3 3 2 2 2 1 1 2 3 3 3 3 3 3 2 1 1 1 1 1 1 1 1 1 1 1 0 1 2
5 5 5 4 4 5 5 5 4 4 4 4 4 4 3 3 4 3 3 3 2 2 3 4 4 4 4 4 4 4 3 2 2 2 2 2 1 1 1 1 1 1 2
5 5 5 5 4 4 5 4 4 4 3 3 3 3 3 3 4 3 3 3 3 3 2 2 3 3 3 4 4 4 4 3 3 3 3 3 2 2 1 1 1 1 1
4 4 5 4 4 3 3 3 4 3 3 3 2 2 3 3 3 3 3 3 2 3 3 2 2 2 2 3 3 4 4 4 4 4 4 4 4 3 2 2 2 2 2
3 3 3 4 3 3 3 3 3 3 3 2 3 3 3 3 3 3 3 2 2 2 2 3 3 3 3 3 3 3 4 4 4 3 3 3 4 4 4 3 3 2 2
2 2 3 3 2 2 2 2 2 2 3 3 3 3 3 3 3 3 2 2 2 2 2 2 2 2 2 1 1 2 2 2 3 3 2 3 4 4 3 2 2 2 2
1 0 2 3 3 3 2 3 3 3 3 3 3 3 3 2 3 3 2 2 2 1 2 2 2 1 1 2 2 1 1 2 2 3 3 4 5 4 4 3 3 3 3
2 2 1 2 3 3 3 4 4 3 4 4 4 4 4 3 3 3 3 2 2 2 2 2 2 2 2 2 2 1 1 2 3 3 3 2 3 5 3 3 3 2 3
2 2 2 1 1 1 1 2 3 3 3 4 4 5 5 4 4 4 3 3 2 2 3 2 3 2 2 3 3 2 2 3 3 3 3 4 4 4 4 3 3 3 3
3 3 3 2 2 2 1 1 2 2 2 2 3 3 5 5 5 4 4 3 3 3 2 2 3 3 3 4 4 3 2 2 3 2 2 4 5 6 6 4 3 3 3
4 3 3 3 2 2 1 1 2 2 2 2 2 2 3 5 5 5 5 4 3 3 3 3 3 4 4 5 5 5 2 3 2 2 2 3 4 5 7 5 5 4 3
3 3 3 3 3 3 1 2 2 2 2 1 2 2 3 4 4 4 4 4 4 3 4 3 3 3 4 6 7 6 3 3 2 2 2 3 5 5 6 5 5 6 4
2 2 2 2 3 3 2 2 2 2 1 2 2 2 3 3 4 4 4 4 4 3 3 3 3 2 3 4 7 8 6 4 3 3 2 3 5 6 7 6 6 6 4
3 3 2 3 3 3 2 3 3 2 1 2 2 2 2 2 3 4 4 4 4 3 3 3 3 2 2 3 6 8 7 6 3 2 2 2 4 6 5 6 6 5 3
3 3 3 3 3 2 3 3 3 2 2 2 3 2 2 2 3 3 4 4 4 4 4 3 3 3 2 2 3 4 4 5 4 2 2 2 3 4 5 4 4 4 4
3 3 4 4 4 3 3 3 3 3 3 3 3 3 3 3 3 3 3 4 4 5 5 4 3 3 3 3 4 3 3 3 4 3 2 1 1 3 3 3 4 4 4
3 4 4 5 5 4 3 3 3 3 3 3 3 3 3 3 3 2 2 4 5 6 6 6 5 4 4 4 5 5 5 4 3 3 3 4 4 4 4 4 4 4 5
Wind_Direction
169 163 160 158 160 153 145 135 142 142 128 124 110 110 100 81 79 79 83 69 71 81 84 68 57 67 68 71 76 76 72 73 92 88 76 55 71 83 54 44 51 61 68
168 164 165 165 164 159 150 145 145 144 132 123 124 132 119 107 101 65 67 78 81 81 95 94 93 82 75 70 74 81 77 68 101 123 118 104 31 37 68 63 46 46 50
172 165 169 168 164 159 151 151 158 149 138 136 121 112 104 99 120 124 93 64 92 95 90 101 102 107 103 92 84 93 81 23 338 41 78 117 134 100 44 72 69 54 40
164 160 162 161 165 163 152 164 165 153 146 144 150 159 159 159 160 142 137 151 129 115 110 111 115 115 114 120 153 110 99 72 334 358 15 53 109 132 119 30 71 76 64
165 160 157 157 158 154 152 170 158 152 151 157 147 154 147 159 153 132 147 162 150 144 145 139 130 122 133 151 136 101 86 119 226 49 25 18 13 24 116 130 91 51 51
161 155 153 152 157 147 144 144 144 142 148 158 156 165 159 165 161 160 168 165 157 165 173 163 155 145 154 163 155 150 156 260 10 92 98 105 64 345 84 111 123 111 66
157 157 156 157 157 149 152 154 150 146 151 162 163 167 169 178 175 168 180 179 172 170 186 157 158 155 148 146 134 160 181 174 175 147 160 139 128 100 103 112 124 107 123
152 156 158 158 159 157 162 164 160 161 166 171 172 164 161 168 164 177 189 184 174 169 166 159 156 162 164 169 154 171 182 177 182 162 143 136 95 75 107 131 127 102 65
148 151 152 154 158 162 166 168 161 163 171 182 178 171 157 156 163 172 178 170 175 180 166 166 169 170 163 155 148 161 190 157 152 147 142 143 153 119 120 112 135 140 139
147 148 150 152 162 165 168 172 168 175 181 179 178 179 166 156 160 161 167 173 183 184 171 177 173 171 173 168 178 169 178 136 135 130 114 134 158 126 87 84 64 95 138
144 146 146 150 156 159 161 167 170 171 176 183 184 177 178 169 168 183 183 189 177 174 181 186 183 185 185 186 179 178 185 182 186 174 167 193 176 149 135 94 78 60 99
140 144 146 151 158 157 155 161 167 166 171 180 181 182 177 173 178 194 186 189 186 180 174 191 192 204 200 197 186 183 185 195 197 192 177 187 168 156 152 138 144 151 138
130 140 141 150 158 160 159 163 162 166 171 171 173 177 179 180 188 192 186 198 190 173 171 179 186 222 217 192 188 190 195 199 199 194 185 184 164 179 179 175 171 173 146
124 126 137 152 160 164 167 164 164 166 174 171 167 178 191 186 185 182 186 196 189 183 178 177 193 214 211 197 198 209 204 197 195 197 184 171 168 180 182 186 184 168 155
113 137 148 153 158 170 170 161 171 184 185 180 184 189 184 175 165 169 183 195 194 193 177 179 202 202 191 194 188 213 211 213 199 185 164 143 133 124 139 159 158 147 150
360 193 181 176 173 185 182 179 187 198 199 196 189 177 173 163 157 167 184 185 171 181 202 197 180 187 175 116 114 51 273 223 200 195 176 158 148 142 143 146 135 143 167
344 310 272 207 199 204 199 200 196 199 200 200 190 185 180 174 174 183 192 185 175 197 219 209 177 182 180 142 136 142 345 268 227 203 187 180 168 155 156 169 182 197 211
351 328 331 347 292 267 231 211 193 196 207 206 199 190 181 181 180 183 190 188 188 201 219 207 194 188 193 174 175 187 226 262 244 210 187 175 159 165 160 173 194 207 221
25 4 343 327 310 297 292 258 209 199 206 213 210 197 185 183 185 190 194 195 193 203 212 216 198 185 193 189 189 182 212 241 253 231 201 184 173 182 173 171 190 208 233
9 2 340 318 306 287 281 270 240 220 225 219 217 203 190 189 191 193 197 197 199 205 207 219 207 193 193 199 197 194 205 220 236 236 221 200 188 181 175 183 191 207 220
352 344 332 326 317 315 296 272 250 247 250 235 227 214 198 194 196 194 195 195 202 208 216 222 216 208 198 198 197 196 205 211 217 221 220 207 194 187 190 199 204 211 207
336 330 332 332 334 330 314 295 275 260 244 230 224 217 209 210 205 188 194 197 199 206 218 226 232 224 203 191 197 197 206 215 212 217 214 203 201 198 200 206 216 218 209
338 339 337 332 331 328 319 299 295 285 266 237 227 221 212 207 200 194 198 199 195 201 213 216 226 229 210 193 192 198 211 225 226 223 217 226 211 197 201 210 216 210 199
341 337 328 320 315 309 305 291 294 280 262 246 231 226 222 225 216 205 205 201 196 203 212 215 221 227 216 198 183 195 211 222 232 244 253 247 219 203 207 212 215 206 203
339 332 321 316 310 301 295 301 302 286 266 258 246 235 222 223 225 221 220 214 207 202 207 213 213 216 226 217 185 180 196 201 208 203 212 209 189 206 213 207 206 205 207
330 324 319 318 317 315 303 301 301 287 271 262 254 248 240 228 222 219 238 237 227 222 219 215 215 231 234 230 202 198 199 198 195 184 207 218 217 218 217 214 215 214 214
Height
1528 1530 1532 1533 1535 1537 1538 1539 1541 1542 1543 1544 1545 1546 1547 1548 1548 1549 1549 1550 1550 1551 1551 1551 1551 1551 1551 1552 1552 1552 1553 1553 1553 1554 1554 1555 1555 1555 1554 1555 1555 1554 1554
1525 1528 1530 1532 1534 1536 1537 1539 1540 1541 1542 1543 1544 1545 1547 1547 1548 1549 1549 1550 1550 1551 1551 1551 1552 1552 1552 1552 1553 1553 1553 1554 1554 1555 1555 1555 1557 1556 1556 1555 1555 1555 1555
1522 1525 1528 1531 1533 1535 1536 1538 1539 1540 1541 1542 1544 1545 1546 1547 1547 1548 1549 1550 1550 1551 1551 1551 1552 1552 1552 1552 1553 1554 1554 1554 1555 1555 1556 1556 1556 1556 1557 1556 1556 1556 1555
1520 1523 1526 1529 1531 1533 1534 1536 1538 1539 1540 1541 1543 1544 1545 1546 1547 1547 1548 1549 1550 1550 1551 1551 1552 1552 1552 1552 1553 1554 1554 1554 1554 1555 1555 1556 1556 1556 1557 1558 1557 1556 1556
1518 1521 1524 1526 1529 1531 1533 1535 1536 1538 1539 1540 1542 1543 1544 1545 1546 1547 1547 1548 1549 1549 1550 1551 1551 1552 1552 1552 1553 1553 1554 1554 1554 1555 1555 1555 1556 1556 1556 1557 1557 1557 1556
1516 1519 1522 1524 1527 1529 1531 1533 1535 1536 1537 1539 1540 1541 1543 1544 1545 1546 1546 1547 1548 1548 1549 1550 1551 1551 1552 1552 1552 1553 1553 1554 1554 1554 1554 1555 1555 1555 1556 1556 1556 1556 1556
1514 1517 1520 1522 1525 1527 1529 1531 1533 1534 1536 1537 1539 1540 1541 1542 1543 1544 1545 1546 1547 1547 1548 1549 1550 1550 1551 1552 1552 1552 1553 1553 1553 1553 1554 1554 1555 1555 1555 1555 1555 1556 1556
1513 1515 1518 1520 1523 1525 1527 1529 1531 1532 1534 1535 1537 1538 1539 1541 1542 1543 1544 1545 1545 1546 1547 1548 1549 1549 1550 1551 1551 1551 1552 1552 1552 1553 1553 1553 1554 1554 1554 1555 1555 1555 1556
1512 1514 1517 1519 1521 1523 1525 1527 1528 1530 1532 1533 1535 1536 1537 1539 1540 1541 1542 1543 1544 1545 1545 1546 1547 1548 1548 1549 1550 1550 1551 1551 1551 1551 1552 1552 1552 1553 1553 1554 1554 1555 1554
1511 1514 1516 1518 1520 1522 1524 1525 1527 1528 1530 1531 1533 1534 1536 1537 1538 1539 1540 1541 1542 1543 1544 1545 1545 1546 1547 1547 1548 1548 1549 1550 1550 1550 1550 1551 1551 1551 1552 1553 1553 1554 1554
1511 1513 1515 1517 1519 1521 1522 1524 1525 1527 1528 1529 1531 1532 1533 1534 1535 1537 1538 1539 1540 1541 1542 1543 1544 1544 1545 1546 1546 1547 1547 1548 1548 1549 1549 1549 1550 1550 1551 1551 1552 1552 1553
1510 1512 1514 1516 1518 1519 1521 1522 1524 1525 1526 1527 1528 1530 1531 1532 1533 1534 1535 1537 1538 1539 1540 1541 1542 1542 1543 1544 1545 1545 1546 1546 1547 1547 1548 1548 1548 1549 1549 1549 1550 1550 1551
1510 1512 1513 1515 1516 1518 1519 1520 1521 1523 1524 1525 1526 1527 1528 1529 1530 1532 1533 1534 1535 1536 1537 1538 1539 1540 1541 1542 1542 1543 1544 1545 1545 1546 1546 1546 1547 1547 1547 1548 1548 1549 1549
1510 1511 1513 1514 1515 1517 1518 1519 1519 1520 1521 1522 1523 1524 1525 1526 1528 1529 1531 1532 1533 1534 1535 1536 1537 1538 1539 1539 1540 1541 1542 1542 1543 1544 1544 1544 1545 1545 1546 1546 1547 1547 1548
1509 1511 1512 1513 1514 1515 1516 1516 1517 1518 1519 1520 1520 1521 1523 1524 1525 1527 1528 1529 1531 1532 1533 1533 1534 1535 1536 1536 1537 1538 1539 1540 1540 1541 1542 1542 1543 1543 1544 1544 1545 1545 1546
1509 1510 1510 1511 1512 1512 1513 1514 1515 1516 1516 1517 1518 1519 1520 1521 1523 1524 1525 1527 1528 1529 1530 1530 1531 1532 1533 1533 1534 1535 1536 1537 1538 1538 1539 1539 1540 1540 1541 1542 1542 1543 1543
1508 1508 1508 1509 1509 1510 1510 1511 1512 1513 1514 1514 1515 1516 1517 1518 1519 1521 1522 1524 1525 1526 1526 1527 1528 1528 1529 1530 1531 1532 1533 1534 1535 1535 1536 1536 1537 1537 1538 1539 1540 1540 1541
1506 1506 1507 1507 1507 1508 1508 1508 1509 1510 1511 1511 1512 1513 1514 1515 1516 1518 1519 1520 1521 1522 1523 1524 1524 1525 1526 1526 1527 1528 1529 1530 1531 1532 1532 1533 1533 1534 1535 1535 1536 1537 1537
1504 1505 1505 1505 1505 1505 1506 1506 1507 1507 1508 1508 1509 1510 1511 1511 1513 1514 1515 1516 1517 1518 1519 1520 1521 1521 1522 1523 1523 1524 1525 1526 1527 1528 1529 1529 1530 1530 1531 1531 1532 1533 1534
1503 1503 1503 1503 1503 1503 1504 1504 1504 1505 1505 1505 1506 1507 1507 1508 1509 1510 1511 1512 1513 1514 1516 1516 1517 1518 1518 1519 1520 1520 1521 1521 1522 1523 1524 1525 1526 1526 1527 1527 1528 1528 1529
1501 1501 1500 1500 1500 1501 1501 1501 1501 1501 1502 1502 1502 1503 1504 1504 1505 1506 1507 1509 1510 1511 1512 1513 1513 1514 1514 1515 1516 1516 1517 1517 1518 1518 1519 1520 1522 1522 1523 1524 1524 1525 1526
1499 1499 1498 1498 1498 1498 1498 1497 1497 1498 1498 1498 1499 1499 1500 1501 1501 1502 1503 1504 1506 1507 1508 1508 1509 1510 1511 1511 1511 1512 1513 1513 1514 1514 1515 1516 1517 1518 1519 1519 1520 1521 1522
1497 1497 1496 1495 1495 1495 1495 1494 1494 1495 1495 1495 1495 1495 1496 1497 1497 1498 1499 1500 1501 1502 1503 1504 1505 1505 1506 1507 1507 1508 1508 1509 1510 1510 1511 1512 1513 1513 1514 1515 1516 1516 1517
1495 1494 1493 1492 1492 1492 1491 1491 1491 1491 1491 1490 1491 1491 1492 1492 1493 1494 1495 1495 1496 1497 1498 1499 1500 1501 1501 1502 1503 1503 1503 1504 1505 1506 1506 1507 1508 1508 1509 1510 1511 1511 1512
1492 1491 1490 1489 1488 1488 1488 1488 1487 1487 1487 1486 1487 1487 1488 1488 1489 1490 1490 1491 1492 1493 1494 1494 1496 1496 1496 1497 1498 1498 1499 1499 1500 1501 1501 1502 1503 1503 1503 1504 1505 1506 1507
1490 1489 1488 1487 1486 1485 1484 1484 1484 1483 1483 1482 1483 1483 1483 1484 1484 1485 1486 1487 1488 1489 1489 1490 1491 1491 1492 1493 1493 1494 1494 1495 1496 1496 1496 1496 1497 1497 1498 1498 1499 1500 1501